Regional Weather Roundup
Issued by NWS

Home | Current Version | Previous Version | Text Only | Print | Product List | Glossary Off
Versions: 1 2 3 4 5 6 7 8 9 10 11 12 13 14 15 16 17 18 19 20 21 22 23 24 25 26 27 28 29 30 31 32 33 34 35 36 37 38 39 40 41 42 43 44 45 46 47 48 49 50

000
ASUS43 KMPX 232210
RWRMN
WEATHER ROUNDUP FOR MINNESOTA
NATIONAL WEATHER SERVICE TWIN CITIES/CHANHASSEN MN
500 PM CDT SAT MAY 23 2015


NOTE: "FAIR" INDICATES FEW OR NO CLOUDS BELOW 12,000 FEET WITH NO
SIGNIFICANT WEATHER AND/OR OBSTRUCTIONS TO VISIBILITY. N/A MEANS
CURRENT SKY AND/OR WEATHER CONDITIONS ARE NOT AVAILABLE.

MNZ060>063-068>070-232300-
   Twin Cities Metro

CITY           SKY/WX    TMP DP  RH WIND       PRES   REMARKS
TWIN CITIES    CLOUDY    70  46  42 N12G21    30.17F
ST PAUL        CLOUDY    71  48  43 N12       30.18F
CRYSTAL        CLOUDY    69  46  43 N12       30.18F
BLAINE         CLOUDY    70  48  46 N10       30.20F
LAKEVILLE      CLOUDY    72  45  37 E5        30.16F
EDEN PRAIRIE   CLOUDY    69  48  47 N8        30.16F
SOUTH ST PAUL  CLOUDY    73  41  32 CALM      30.17F
LAKE ELMO      PTSUNNY   68  48  49 N8        30.19F
$$
MNZ001>005-007-008-013>017-022>024-027-028-232300-
   Northwest Minnesota

CITY           SKY/WX    TMP DP  RH WIND       PRES   REMARKS
BEMIDJI        PTSUNNY   74  40  29 SW6       30.13F
HALLOCK        SUNNY     79  28  15 SW8       30.07F
ROSEAU         SUNNY     79  34  19 S8        30.10S
WARROAD        SUNNY     77  43  29 SW8       30.10S
THIEF RVR FALL MOSUNNY   75  39  27 SW12      30.12S
CROOKSTON      MOSUNNY   75  43  31 SW15      30.12S
FOSSTON        PTSUNNY   72  37  28 S10       30.14F
DETROIT LAKES  PTSUNNY   70  43  37 S10G16    30.18S
MOORHEAD       PTSUNNY   72  43  35 SE13      30.14F
PARK RAPIDS    PTSUNNY   72  41  32 S13       30.16S
MAHNOMEN       MOCLDY    72  42  34 S8        30.14F
$$
MNZ006-009>011-018-025>026-232300-
   North Central Minnesota

CITY           SKY/WX    TMP DP  RH WIND       PRES   REMARKS
BAUDETTE       SUNNY     77  36  22 S12       30.10F
FLAG ISLAND    SUNNY     66  46  48 S12       30.07F
INTL FALLS     SUNNY     79  35  20 W8        30.09F
WASKISH        SUNNY     72  50  46 CALM      30.12F
BIG FORK       SUNNY     77  36  22 SW13G18   30.13S
LONGVILLE      PTSUNNY   73  41  31 S8        30.16S
GRAND RAPIDS   PTSUNNY   73  39  29 S10       30.15S
CRANE LAKE     MOSUNNY   77  28  16 SE5       30.10F
ORR            MOSUNNY   79  28  15 S1        30.09S
COOK           MOSUNNY   77  34  20 S6        30.11F
WALKER         FAIR      71  41  34 SW7       30.15S
$$
MNZ012-019>021-037-232300-
   Northeast Minnesota

CITY           SKY/WX    TMP DP  RH WIND       PRES   REMARKS
DULUTH         MOSUNNY   76  38  25 W10       30.14F
ELY            MOSUNNY   79  30  17 W9        30.10F
HIBBING        MOSUNNY   77  31  18 VRB7      30.12F
EVELETH        SUNNY     72  32  23 S8        30.13F
DULUTH HARBOR  MOSUNNY   79  39  24 SW18      30.13F
TWO HARBORS    MOSUNNY   81  45  28 SW15G21   30.11F
SILVER BAY       N/A     79  28  15 S10       30.10F
GRAND MARAIS     N/A     54  38  54 W10       30.09F
G MARAIS ARPRT SUNNY     72  34  25 S10G17    30.14F
$$
MNZ029>031-032-039>041-046>048-054>057-064-232300-
   West Central Minnesota

CITY           SKY/WX    TMP DP  RH WIND       PRES   REMARKS
FERGUS FALLS   CLOUDY    70  45  40 S9        30.16F
WHEATON        PTSUNNY   66  46  48 SE10      30.15F
MORRIS         CLOUDY    70  46  43 S15       30.14F
ALEXANDRIA     PTSUNNY   66  43  43 S9        30.19F
ELBOW LAKE     PTSUNNY   67  47  48 SE13      30.16F
WADENA         PTSUNNY   68  43  40 SE13      30.18S
GLENWOOD       PTSUNNY   66  46  48 SE9       30.19F
APPLETON       PTSUNNY   70  46  43 SE12      30.13F
BENSON         PTSUNNY   66  46  48 S6        30.15F
ORTONVILLE     CLOUDY    66  48  52 S8        30.13F
MADISON        CLOUDY    68  48  49 SE8       30.13F
WILLMAR        FAIR      66  48  52 E10       30.17F
$$
MNZ033>034-036-042>043-049>051-058-059-232300-
   Central Minnesota

CITY           SKY/WX    TMP DP  RH WIND       PRES   REMARKS
ST CLOUD       CLOUDY    66  46  48 NE5       30.19F
SAUK CENTRE    CLOUDY    66  45  46 E8        30.19F
PAYNESVILLE    CLOUDY    64  45  51 NE8       30.18F
AITKIN         PTSUNNY   72  43  35 SW8       30.17S
PINE RIVER     PTSUNNY   72  46  40 S10       30.20F
BRAINERD       PTSUNNY   68  43  40 S9        30.19F
STAPLES        CLOUDY    66  39  37 SW9       30.19F
LONG PRAIRIE   PTSUNNY   64  43  45 SE8       30.19F
LITTLE FALLS   CLOUDY    68  39  34 S8        30.20F
LITCHFIELD     PTSUNNY   66  48  52 E7        30.18F
BUFFALO        CLOUDY    65  49  58 NE8       30.19F
MAPLE LAKE     CLOUDY    65  53  66 NE6       30.20F
$$
MNZ037-044-045-052-053-232300-
   East Central Minnesota

CITY           SKY/WX    TMP DP  RH WIND       PRES   REMARKS
PRINCETON      CLOUDY    66  46  48 E3        30.20F
MORA           CLOUDY    68  43  40 S7        30.22F
CAMBRIDGE      CLOUDY    70  50  49 CALM      30.19F
RUSH CITY      CLOUDY    67  45  46 CALM      30.22F
MOOSE LAKE     PTSUNNY   72  43  35 SW12G20   30.16F
HINCKLEY       FAIR      68  46  45 S8        30.21F
CLOQUET        PTSUNNY   73  36  25 SW14G20   30.15F
MCGREGOR       PTSUNNY   70  41  35 SW12G18   30.18F
$$
MNZ071>073-080-081-089-090-097-098-232300-
   Southwest Minnesota

CITY           SKY/WX    TMP DP  RH WIND       PRES   REMARKS
MONTEVIDEO     CLOUDY    70  48  46 SE10      30.14F
GRANITE FALLS  CLOUDY    69  47  44 E7        30.15F
CANBY          CLOUDY    67  48  49 SE6       30.13F
MARSHALL       CLOUDY    70  46  43 SE12      30.11F
REDWOOD FALLS  CLOUDY    68  49  50 E8        30.12F
OLIVIA         CLOUDY    64  48  55 E12G21    30.14F
PIPESTONE      CLOUDY    66  48  52 S8        30.12F
WINDOM         CLOUDY    70  50  49 CALM      30.12F
WORTHINGTON    CLOUDY    72  45  37 SE14G21   30.10F
JACKSON        CLOUDY    70  46  43 SE9       30.13F
TRACY          CLOUDY    70  48  45 S8G16     30.12F
SLAYTON        CLOUDY    69  45  42 SE12G18   30.12F
$$
MNZ065>067-074>077-082>085-091>093-232300-
   South Central Minnesota

CITY           SKY/WX    TMP DP  RH WIND       PRES   REMARKS
MANKATO        CLOUDY    73  43  33 SE8       30.13F
NEW ULM        CLOUDY    72  43  35 E6        30.13F
ST JAMES       CLOUDY    75  45  33 SE13G21   30.12F
FAIRMONT       CLOUDY    72  45  37 S16       30.12F
GLENCOE        CLOUDY    67  53  59 NE7       30.16F
FARIBAULT      CLOUDY    73  43  33 NE3       30.16F
OWATONNA       CLOUDY    73  39  29 S7        30.15F
WASECA         CLOUDY    72  41  33 SE12      30.15F
ALBERT LEA     PTSUNNY   75  43  31 S12G17    30.14F
$$
MNZ078>079-086>088-094>096-232300-
   Southeast Minnesota

CITY           SKY/WX    TMP DP  RH WIND       PRES   REMARKS
ROCHESTER      CLOUDY    74  42  31 S8        30.17F
RED WING       CLOUDY    73  39  29 SE3       30.16F
STANTON        CLOUDY    74  41  30 SE3       30.15F
DODGE CENTER   CLOUDY    75  41  29 S9        30.16F
WINONA         PTSUNNY   75  46  35 E7        30.17F
AUSTIN         PTSUNNY   72  46  40 S8G16     30.14F
PRESTON        CLOUDY    74  42  31 S9        30.17F
$$
ABBREVIATIONS USED IN REMARKS
   TC - TEMPERATURES IN CELSIUS
  WCI - WIND CHILL INDEX
   HX - HEAT INDEX
  VSB - VISIBILITY
$$



USA.gov is the U.S. government's official web portal to all federal, state and local government web resources and services.